カタログに戻る

DELTA 1 DEB

運用中PO
NORAD 14461·DEBRIS·🇺🇸 United States

打ち上げ Mar 5, 1978 から Vandenberg Space Force Base

Loading…

次のパス (今後24時間)

TLE

最新Source: Space-Track

元期: Sep 14, 2026, 05:51 UTC

1 14461U 78026GB  26257.24417723  .00001153  00000-0  46202-3 0  9998
2 14461  99.1769   6.1447 0086618 228.3046 163.2942 14.28362661333178

AllMySatでDELTA 1 DEBをリアルタイム追跡

Download on the App Store